Torna al catalogo

JILIN-1 GAOFEN 03D-49

AttivoScienzaSSO
NORAD 54694·PAYLOAD·🇨🇳 China
Questo nome del satellite non è ancora stato confermato da fonti ufficiali.

Lanciato Dec 9, 2022 da Yellow Sea Launch Area

Loading…

Prossimi Passaggi (prossime 24 ore)

TLE

AggiornatoSource: Space-Track

Epoca: Sep 14, 2026, 15:21 UTC

1 54694U 22167N   26257.64010888  .00009999  00000-0  25912-3 0  9991
2 54694  97.6878  71.9711 0005501 163.7856 196.3565 15.39234054209246

Traccia JILIN-1 GAOFEN 03D-49 in tempo reale con AllMySat

Download on the App Store